Вернуться в каталог

STARLINK-1048

АктивенСвязьVLEO
NORAD 44753·PAYLOAD·🇺🇸 United States

Запущен Nov 11, 2019 с Cape Canaveral Space Force Station

Loading…

Ближайшие Пролёты (ближайшие 24 часа)

TLE

СвежийSource: CelesTrak SupGP

Эпоха: Sep 15, 2026, 01:47 UTC

1 44753C 19074AS  26258.07479167  .00127850  00000+0  69925-3 0  2582
2 44753  53.0405 316.1741 0006536  14.8229 166.8981 15.79054380    13

Отслеживайте STARLINK-1048 в реальном времени с AllMySat

Download on the App Store